Weather History for Tirana, Albania

Change the Weather History Date:

Saturday, December 28, 2013

  Actual Average Record
Temperature  
Mean Temperature 51 °F -  
Max Temperature 64 °F 52 °F - ()
Min Temperature 38 °F 35 °F - ()
Degree Days  
Heating Degree Days 14    
Growing Degree Days 1 (Base 50)    
Moisture  
Dew Point 42 °F    
Average Humidity 80    
Maximum Humidity 93    
Minimum Humidity 41    
Precipitation  
Precipitation 0.00 in -13.12 in - ()
Sea Level Pressure  
Sea Level Pressure 29.96 in    
Wind  
Wind Speed 3 mph ()    
Max Wind Speed 8 mph    
Max Gust Speed -    
Visibility 3.6 miles    
Events Fog    
T = Trace of Precipitation, MM = Missing Value Source: Averaged Metar Reports

Daily Weather History Graph

Daily Weather History Graph

Search for Another Location

Airport:

Trip Planner

Search our weather history database for the weather conditions in past years. The results will help you decide how hot, cold, wet, or windy it might be!

Date:

Astronomy

Dec. 28, 2013 Rise Set
Actual Time 7:06 AM CET 4:18 PM CET
Civil Twilight 6:35 AM CET 4:50 PM CET
Nautical Twilight 6:00 AM CET 5:25 PM CET
Astronomical Twilight 5:26 AM CET 5:58 PM CET
Moon 2:21 AM CET (12/28) 12:58 PM CET (12/28)
Length of Visible Light 10h 15m
Length of Day
9h 12m
Waning Crescent, 21% of the Moon is Illuminated
Dec 28
Waning Crescent
Jan 1
New
Jan 8
First Quarter
Jan 16
Full
Jan 24
Last Quarter

Hourly Weather History & Observations

Time (CET) Temp. Windchill Dew Point Humidity Pressure Visibility Wind Dir Wind Speed Gust Speed Precip Events Conditions
12:00 AM 45 °F - 43 °F 91% 29.91 in 2 mi South 4.5 mph - -   Overcast
12:20 AM 44.6 °F 43.1 °F 42.8 °F 93% 29.89 in 2.5 mi South 3.5 mph - N/A   Overcast
12:50 AM 46.4 °F 44.3 °F 44.6 °F 93% 29.89 in 3.1 mi SSW 4.6 mph - N/A   Overcast
1:00 AM 46 °F - 44 °F 90% 29.91 in 4 mi South 4.5 mph - -   Overcast
1:20 AM 46.4 °F - 42.8 °F 87% 29.89 in 4.3 mi Calm Calm - N/A   Mostly Cloudy
1:50 AM 46.4 °F 45.2 °F 42.8 °F 87% 29.89 in 3.1 mi NE 3.5 mph - N/A   Mostly Cloudy
2:00 AM 44 °F - 42 °F 92% 29.92 in 1 mi NE 2.2 mph - -   Mostly Cloudy
2:20 AM 44.6 °F - 42.8 °F 93% 29.92 in 1.6 mi West 2.3 mph - N/A   Overcast
2:50 AM 44.6 °F - 42.8 °F 93% 29.92 in 1.6 mi Variable 2.3 mph - N/A   Mostly Cloudy
3:00 AM 43 °F - 41 °F 92% 29.92 in 2 mi SW 2.2 mph - -   Overcast
3:20 AM 42.8 °F 41.1 °F 41.0 °F 93% 29.89 in 1.9 mi ENE 3.5 mph - N/A Fog Patches of Fog
3:50 AM 41.0 °F 39.0 °F 39.2 °F 93% 29.89 in 0.5 mi SSE 3.5 mph - N/A Fog Patches of Fog
4:00 AM 42 °F - 40 °F 89% 29.91 in 1 mi SSE 4.5 mph - -   Scattered Clouds
4:20 AM 42.8 °F 40.1 °F 41.0 °F 93% 29.92 in 2.2 mi SE 4.6 mph - N/A Fog Patches of Fog
4:50 AM 41.0 °F - 39.2 °F 93% 29.92 in 1.9 mi Calm Calm - N/A Fog Fog
5:00 AM 41 °F - 40 °F 93% 29.93 in 0 mi Calm Calm - -   Scattered Clouds
5:20 AM 41.0 °F 39.0 °F 39.2 °F 93% 29.92 in 2.5 mi SSE 3.5 mph - N/A Fog Fog
5:50 AM 41.0 °F - 39.2 °F 93% 29.92 in 0.1 mi Variable 2.3 mph - N/A Fog Patches of Fog
6:00 AM 39 °F - 38 °F 93% 29.94 in 0 mi 2.2 mph - -  
6:20 AM 42.8 °F - 41.0 °F 93% 29.92 in 1.9 mi Variable 2.3 mph - N/A Fog Patches of Fog
6:50 AM 39.2 °F 37.0 °F 37.4 °F 93% 29.92 in 0.1 mi SSE 3.5 mph - N/A Fog Patches of Fog
7:00 AM 41 °F - 39 °F 90% 29.95 in 0 mi SE 4.5 mph - -   Scattered Clouds
7:20 AM 39.2 °F 37.0 °F 37.4 °F 93% 29.95 in 0.1 mi ESE 3.5 mph - N/A Fog Patches of Fog
7:50 AM 41.0 °F - 39.2 °F 93% 29.95 in - SSW 2.3 mph - N/A Fog Patches of Fog
8:00 AM 40 °F - 38 °F 92% 29.96 in 3 mi South 4.5 mph - -   Scattered Clouds
8:20 AM 41.0 °F 39.0 °F 39.2 °F 93% 29.95 in 1.9 mi SSE 3.5 mph - N/A   Scattered Clouds
8:50 AM 42.8 °F - 41.0 °F 93% 29.95 in - Calm Calm - N/A   Scattered Clouds
9:20 AM 44.6 °F - 42.8 °F 93% 29.98 in 3.7 mi Variable 2.3 mph - N/A   Scattered Clouds
9:50 AM 48.2 °F - 46.4 °F 93% 29.98 in 5.0 mi Variable 2.3 mph - N/A   Scattered Clouds
10:00 AM 49 °F - 46 °F 83% 29.98 in 6 mi SSW 4.5 mph - -  
10:20 AM 50.0 °F - 44.6 °F 82% 29.98 in 6.2 mi Variable 2.3 mph - N/A   Scattered Clouds
10:50 AM 50.0 °F - 46.4 °F 87% 29.98 in 6.2 mi Variable 2.3 mph - N/A   Scattered Clouds
11:00 AM 51 °F - 46 °F 77% 29.98 in 6 mi Calm Calm - -  
11:20 AM 55.4 °F - 48.2 °F 77% 29.98 in 6.2 mi WNW 3.5 mph - N/A   Partly Cloudy
11:50 AM 59.0 °F - 46.4 °F 63% 29.95 in 6.2 mi Variable 2.3 mph - N/A   Partly Cloudy
12:00 PM 60 °F - 45 °F 47% 29.96 in 19 mi North 2.2 mph - -  
12:20 PM 59.0 °F - 46.4 °F 63% 29.95 in 6.2 mi North 3.5 mph - N/A   Partly Cloudy
12:50 PM 62.6 °F - 46.4 °F 55% 29.95 in 6.2 mi North 5.8 mph - N/A   Scattered Clouds
1:00 PM 63 °F - 45 °F 41% 29.96 in 22 mi NNW 6.7 mph - -  
1:20 PM 64.4 °F - 42.8 °F 45% 29.95 in 6.2 mi NNW 5.8 mph - N/A   Scattered Clouds
1:50 PM 62.6 °F - 44.6 °F 52% 29.95 in 6.2 mi NNW 8.1 mph - N/A   Partly Cloudy
2:00 PM 61 °F - 47 °F 51% 29.96 in 22 mi North 6.7 mph - -  
2:20 PM 62.6 °F - 44.6 °F 52% 29.95 in 6.2 mi North 6.9 mph - N/A   Scattered Clouds
2:50 PM 62.6 °F - 44.6 °F 52% 29.95 in 6.2 mi NNW 5.8 mph - N/A   Scattered Clouds
3:00 PM 64 °F - 46 °F 41% 29.96 in 28 mi NNW 4.5 mph - -  
3:20 PM 62.6 °F - 44.6 °F 52% 29.95 in - NNW 4.6 mph - N/A   Clear
3:50 PM 60.8 °F - 44.6 °F 55% 29.98 in - NNW 2.3 mph - N/A   Clear
4:00 PM 60 °F - 45 °F 47% 29.98 in 25 mi North 2.2 mph - -  
4:20 PM 60.8 °F - 44.6 °F 55% 29.98 in - Calm Calm - N/A   Clear
4:50 PM 55.4 °F - 44.6 °F 67% 29.98 in - ESE 2.3 mph - N/A   Clear
5:00 PM 54 °F - 43 °F 58% 30.00 in 14 mi ESE 4.5 mph - -  
5:20 PM 51.8 °F - 44.6 °F 76% 29.98 in - SSE 3.5 mph - N/A   Clear
5:50 PM 50.0 °F - 44.6 °F 82% 30.01 in - South 3.5 mph - N/A   Clear
6:00 PM 50 °F - 45 °F 76% 30.01 in 6 mi South 2.2 mph - -  
6:20 PM 46.4 °F 45.2 °F 41.0 °F 81% 30.01 in - SSE 3.5 mph - N/A   Clear
6:50 PM 48.2 °F - 44.6 °F 87% 30.01 in 4.3 mi ESE 4.6 mph - N/A   Unknown
7:20 PM 46.4 °F - 41.0 °F 81% 30.01 in 4.3 mi Calm Calm - N/A   Unknown
7:50 PM 46.4 °F 45.2 °F 42.8 °F 87% 30.01 in 3.7 mi SSE 3.5 mph - N/A   Unknown
8:20 PM 44.6 °F 43.1 °F 41.0 °F 87% 30.01 in 3.1 mi South 3.5 mph - N/A   Mist
8:50 PM 42.8 °F - 39.2 °F 87% 30.01 in 3.1 mi South 2.3 mph - N/A   Mist
9:20 PM 42.8 °F - 41.0 °F 93% 30.01 in 2.5 mi Calm Calm - N/A   Mist
9:50 PM 41.0 °F - 37.4 °F 87% 30.04 in 1.6 mi SE 2.3 mph - N/A   Mist
10:00 PM 41 °F - 39 °F 92% 30.04 in 2 mi SE 2.2 mph - -  
10:20 PM 41.0 °F - 37.4 °F 87% 30.04 in 1.6 mi Variable 2.3 mph - N/A   Mist
10:50 PM 41.0 °F 39.0 °F 37.4 °F 87% 30.04 in 1.6 mi South 3.5 mph - N/A   Mist
11:00 PM 40 °F - 38 °F 88% 30.04 in 3 mi SSE 4.5 mph - -  
11:20 PM 39.2 °F 37.0 °F 37.4 °F 93% 30.01 in 1.2 mi SSE 3.5 mph - N/A   Mist
11:50 PM 41.0 °F 38.0 °F 39.2 °F 93% 30.01 in 3.1 mi South 4.6 mph - N/A   Mist